| time (UTC) | temp C | wind direction | speed KPH | gust KPH | rain 1hr cm | rain 24hr cm | rain mn cm | humidity % | barometer mb |
| 20260906191600 | 18 | 339 | 6.4 | 14.5 | 0.00 | 0.00 | 0.00 | 67 | 1018.5 |
| 20260906191059 | 18 | 231 | 3.2 | 11.3 | 0.00 | 0.00 | 0.00 | 68 | 1018.5 |
| 20260906190559 | 19 | 136 | 3.2 | 9.7 | 0.00 | 0.00 | 0.00 | 65 | 1018.5 |
| 20260906190054 | 18 | 69 | 1.6 | 6.4 | 0.00 | 0.00 | 0.00 | 67 | 1018.5 |
| 20260906185552 | 18 | 6 | 4.8 | 9.7 | 0.00 | 0.00 | 0.00 | 67 | 1018.5 |
| 20260906185051 | 19 | 37 | 4.8 | 9.7 | 0.00 | 0.00 | 0.00 | 67 | 1018.5 |
| 20260906184547 | 20 | 283 | 3.2 | 4.8 | 0.00 | 0.00 | 0.00 | 65 | 1018.9 |
| 20260906184042 | 18 | 9 | 1.6 | 3.2 | 0.00 | 0.00 | 0.00 | 66 | 1018.5 |
| 20260906183538 | 19 | 158 | 3.2 | 9.7 | 0.00 | 0.00 | 0.00 | 66 | 1018.9 |
| 20260906183034 | 19 | 313 | 3.2 | 4.8 | 0.00 | 0.00 | 0.00 | 64 | 1018.5 |
| 20260906182529 | 18 | 112 | 0.0 | 3.2 | 0.00 | 0.00 | 0.00 | 66 | 1018.5 |
| 20260906182025 | 17 | 121 | 3.2 | 4.8 | 0.00 | 0.00 | 0.00 | 69 | 1018.9 |
| 20260906181520 | 17 | 80 | 3.2 | 9.7 | 0.00 | 0.00 | 0.00 | 70 | 1018.9 |
| 20260906181016 | 18 | 353 | 3.2 | 12.9 | 0.00 | 0.00 | 0.00 | 70 | 1018.9 |
| 20260906180511 | 17 | 45 | 3.2 | 6.4 | 0.00 | 0.00 | 0.00 | 69 | 1018.9 |
| 20260906180009 | 18 | 95 | 6.4 | 16.1 | 0.00 | 0.00 | 0.00 | 68 | 1018.9 |
| 20260906175508 | 18 | 42 | 3.2 | 6.4 | 0.00 | 0.00 | 0.00 | 67 | 1018.9 |
| 20260906175003 | 17 | 54 | 3.2 | 6.4 | 0.00 | 0.00 | 0.00 | 67 | 1018.9 |
| 20260906174501 | 18 | 60 | 3.2 | 11.3 | 0.00 | 0.00 | 0.00 | 67 | 1018.9 |
| 20260906173956 | 18 | 79 | 1.6 | 6.4 | 0.00 | 0.00 | 0.00 | 68 | 1018.9 |
| 20260906173452 | 17 | 63 | 1.6 | 4.8 | 0.00 | 0.00 | 0.00 | 69 | 1018.9 |
| 20260906172951 | 17 | 159 | 1.6 | 4.8 | 0.00 | 0.00 | 0.00 | 69 | 1018.9 |
| 20260906172448 | 16 | 45 | 3.2 | 9.7 | 0.00 | 0.00 | 0.00 | 72 | 1018.9 |
| 20260906171943 | 16 | 79 | 1.6 | 4.8 | 0.00 | 0.00 | 0.00 | 72 | 1018.9 |
| 20260906171437 | 16 | 107 | 1.6 | 12.9 | 0.00 | 0.00 | 0.00 | 73 | 1019.2 |
| 20260906170933 | 16 | 332 | 9.7 | 11.3 | 0.00 | 0.00 | 0.00 | 71 | 1018.9 |
| 20260906170429 | 16 | 332 | 3.2 | 6.4 | 0.00 | 0.00 | 0.00 | 71 | 1018.9 |
| 20260906165925 | 16 | 19 | 6.4 | 9.7 | 0.00 | 0.00 | 0.00 | 72 | 1018.9 |
| 20260906165419 | 15 | 83 | 1.6 | 4.8 | 0.00 | 0.00 | 0.00 | 73 | 1018.9 |
| 20260906164914 | 15 | 10 | 6.4 | 9.7 | 0.00 | 0.00 | 0.00 | 75 | 1019.2 |
| 20260906164412 | 15 | 29 | 4.8 | 14.5 | 0.00 | 0.00 | 0.00 | 75 | 1019.2 |
| 20260906163909 | 15 | 57 | 1.6 | 9.7 | 0.00 | 0.00 | 0.00 | 76 | 1018.9 |
| 20260906163405 | 15 | 9 | 3.2 | 11.3 | 0.00 | 0.00 | 0.00 | 77 | 1019.2 |
| 20260906162903 | 15 | 20 | 3.2 | 4.8 | 0.00 | 0.00 | 0.00 | 77 | 1018.9 |
| 20260906162401 | 14 | 81 | 1.6 | 9.7 | 0.00 | 0.00 | 0.00 | 78 | 1019.2 |
| 20260906161857 | 14 | 230 | 4.8 | 12.9 | 0.00 | 0.00 | 0.00 | 78 | 1019.2 |
| 20260906161356 | 14 | 18 | 1.6 | 4.8 | 0.00 | 0.00 | 0.00 | 78 | 1018.9 |
| 20260906160855 | 14 | 118 | 1.6 | 6.4 | 0.00 | 0.00 | 0.00 | 78 | 1019.2 |
| 20260906160349 | 14 | 76 | 1.6 | 12.9 | 0.00 | 0.00 | 0.00 | 78 | 1019.2 |
| 20260906155847 | 14 | 63 | 4.8 | 12.9 | 0.00 | 0.00 | 0.00 | 78 | 1019.2 |
| 20260906155341 | 14 | 318 | 14.5 | 22.5 | 0.00 | 0.00 | 0.00 | 78 | 1019.2 |
| 20260906154838 | 13 | 59 | 1.6 | 11.3 | 0.00 | 0.00 | 0.00 | 79 | 1018.9 |
| 20260906154332 | 13 | 49 | 1.6 | 6.4 | 0.00 | 0.00 | 0.00 | 79 | 1018.9 |
| 20260906153830 | 13 | 357 | 3.2 | 6.4 | 0.00 | 0.00 | 0.00 | 79 | 1018.9 |
| 20260906153330 | 13 | 82 | 3.2 | 6.4 | 0.00 | 0.00 | 0.00 | 79 | 1018.9 |
| 20260906152825 | 13 | 330 | 3.2 | 11.3 | 0.00 | 0.00 | 0.00 | 79 | 1019.2 |
| 20260906152320 | 13 | 35 | 1.6 | 9.7 | 0.00 | 0.00 | 0.00 | 80 | 1018.9 |
| 20260906151819 | 13 | 356 | 3.2 | 4.8 | 0.00 | 0.00 | 0.00 | 80 | 1018.9 |
| 20260906151315 | 13 | 60 | 1.6 | 3.2 | 0.00 | 0.00 | 0.00 | 80 | 1018.9 |
| 20260906150811 | 13 | 350 | 3.2 | 4.8 | 0.00 | 0.00 | 0.00 | 80 | 1018.9 |
| 20260906150307 | 13 | 35 | 1.6 | 6.4 | 0.00 | 0.00 | 0.00 | 80 | 1019.2 |
| 20260906145805 | 13 | 3 | 4.8 | 9.7 | 0.00 | 0.00 | 0.00 | 80 | 1018.9 |
| 20260906145306 | 13 | 74 | 4.8 | 9.7 | 0.00 | 0.00 | 0.00 | 80 | 1018.9 |
| 20260906144759 | 12 | 265 | 3.2 | 9.7 | 0.00 | 0.00 | 0.00 | 80 | 1018.9 |
| 20260906144254 | 12 | 4 | 3.2 | 3.2 | 0.00 | 0.00 | 0.00 | 80 | 1018.9 |
| 20260906143754 | 12 | 66 | 3.2 | 11.3 | 0.00 | 0.00 | 0.00 | 80 | 1018.5 |
| 20260906143251 | 12 | 47 | 1.6 | 3.2 | 0.00 | 0.00 | 0.00 | 80 | 1018.9 |
| 20260906142750 | 12 | 80 | 3.2 | 6.4 | 0.00 | 0.00 | 0.00 | 80 | 1018.9 |
| 20260906142246 | 12 | 82 | 1.6 | 4.8 | 0.00 | 0.00 | 0.00 | 79 | 1018.9 |
| 20260906141744 | 12 | 56 | 1.6 | 3.2 | 0.00 | 0.00 | 0.00 | 80 | 1018.9 |
| 20260906141239 | 12 | 87 | 1.6 | 3.2 | 0.00 | 0.00 | 0.00 | 80 | 1018.9 |
| 20260906140738 | 12 | 86 | 3.2 | 4.8 | 0.00 | 0.00 | 0.00 | 81 | 1018.9 |
| 20260906140234 | 11 | 35 | 1.6 | 3.2 | 0.00 | 0.00 | 0.00 | 82 | 1018.9 |
| 20260906135730 | 11 | 17 | 1.6 | 4.8 | 0.00 | 0.00 | 0.00 | 82 | 1018.9 |
| 20260906135227 | 11 | 59 | 1.6 | 3.2 | 0.00 | 0.00 | 0.00 | 82 | 1018.9 |
| 20260906134722 | 11 | 93 | 1.6 | 4.8 | 0.00 | 0.00 | 0.00 | 82 | 1018.5 |
| 20260906134217 | 11 | 87 | 0.0 | 3.2 | 0.00 | 0.00 | 0.00 | 83 | 1018.5 |
| 20260906133713 | 11 | 80 | 1.6 | 4.8 | 0.00 | 0.00 | 0.00 | 83 | 1018.5 |
| 20260906133208 | 11 | 20 | 3.2 | 3.2 | 0.00 | 0.00 | 0.00 | 83 | 1018.5 |
| 20260906132703 | 11 | 96 | 0.0 | 1.6 | 0.00 | 0.00 | 0.00 | 83 | 1018.5 |
| 20260906132159 | 11 | 99 | 0.0 | 1.6 | 0.00 | 0.00 | 0.00 | 83 | 1018.9 |
| 20260906131654 | 11 | 98 | 1.6 | 1.6 | 0.00 | 0.00 | 0.00 | 83 | 1018.5 |
| 20260906131149 | 11 | 91 | 1.6 | 1.6 | 0.00 | 0.00 | 0.00 | 83 | 1018.9 |
| 20260906130643 | 11 | 69 | 1.6 | 1.6 | 0.00 | 0.00 | 0.00 | 82 | 1018.5 |
| 20260906130139 | 11 | 96 | 1.6 | 3.2 | 0.00 | 0.00 | 0.00 | 82 | 1018.5 |
| 20260906125631 | 11 | 61 | 1.6 | 3.2 | 0.00 | 0.00 | 0.00 | 82 | 1018.5 |
| 20260906125130 | 11 | 304 | 3.2 | 4.8 | 0.00 | 0.00 | 0.00 | 83 | 1018.5 |
| 20260906124626 | 11 | 336 | 1.6 | 6.4 | 0.00 | 0.00 | 0.00 | 82 | 1018.5 |
| 20260906124121 | 11 | 97 | 1.6 | 6.4 | 0.00 | 0.00 | 0.00 | 82 | 1018.5 |
| 20260906123620 | 11 | 5 | 1.6 | 3.2 | 0.00 | 0.00 | 0.00 | 82 | 1018.5 |
| 20260906123115 | 12 | 72 | 1.6 | 3.2 | 0.00 | 0.00 | 0.00 | 82 | 1018.5 |
| 20260906122614 | 12 | 59 | 1.6 | 1.6 | 0.00 | 0.00 | 0.00 | 82 | 1018.5 |
| 20260906122110 | 12 | 99 | 0.0 | 9.7 | 0.00 | 0.00 | 0.00 | 81 | 1018.5 |
| 20260906121606 | 12 | 100 | 1.6 | 6.4 | 0.00 | 0.00 | 0.00 | 81 | 1018.5 |
| 20260906121103 | 12 | 351 | 3.2 | 4.8 | 0.00 | 0.00 | 0.00 | 81 | 1018.5 |
| 20260906120557 | 12 | 87 | 1.6 | 6.4 | 0.00 | 0.00 | 0.00 | 81 | 1018.9 |
| 20260906120054 | 12 | 86 | 1.6 | 3.2 | 0.00 | 0.00 | 0.00 | 81 | 1018.9 |
| 20260906115549 | 12 | 328 | 1.6 | 3.2 | 0.00 | 0.00 | 0.00 | 82 | 1019.2 |
| 20260906115044 | 12 | 77 | 1.6 | 1.6 | 0.00 | 0.00 | 0.00 | 82 | 1018.9 |
| 20260906114544 | 12 | 303 | 3.2 | 3.2 | 0.00 | 0.00 | 0.00 | 83 | 1018.9 |
| 20260906114039 | 12 | 84 | 0.0 | 1.6 | 0.00 | 0.00 | 0.00 | 82 | 1018.9 |
| 20260906113538 | 12 | 81 | 1.6 | 3.2 | 0.00 | 0.00 | 0.00 | 82 | 1018.9 |
| 20260906113034 | 12 | 19 | 1.6 | 3.2 | 0.00 | 0.00 | 0.00 | 82 | 1018.9 |
| 20260906112528 | 12 | 284 | 3.2 | 3.2 | 0.00 | 0.00 | 0.00 | 82 | 1018.9 |
| 20260906112025 | 12 | 52 | 3.2 | 3.2 | 0.00 | 0.00 | 0.00 | 83 | 1018.9 |
| 20260906111524 | 12 | 106 | 1.6 | 3.2 | 0.00 | 0.00 | 0.00 | 83 | 1018.9 |
| 20260906111020 | 12 | 65 | 1.6 | 3.2 | 0.00 | 0.00 | 0.00 | 83 | 1019.2 |
| 20260906110514 | 12 | 343 | 3.2 | 4.8 | 0.00 | 0.00 | 0.00 | 83 | 1018.9 |
| 20260906110008 | 12 | 94 | 1.6 | 4.8 | 0.00 | 0.00 | 0.00 | 83 | 1018.9 |
| 20260906105503 | 12 | 49 | 0.0 | 3.2 | 0.00 | 0.00 | 0.00 | 82 | 1018.9 |
| 20260906104959 | 12 | 43 | 1.6 | 4.8 | 0.00 | 0.00 | 0.00 | 82 | 1018.9 |
| 20260906104458 | 12 | 342 | 4.8 | 4.8 | 0.00 | 0.00 | 0.00 | 82 | 1018.9 |
| 20260906103957 | 12 | 354 | 3.2 | 4.8 | 0.00 | 0.00 | 0.00 | 83 | 1018.9 |
| 20260906103455 | 12 | 99 | 0.0 | 3.2 | 0.00 | 0.00 | 0.00 | 83 | 1018.9 |
| 20260906102951 | 12 | 96 | 1.6 | 1.6 | 0.00 | 0.00 | 0.00 | 83 | 1018.5 |
| 20260906102451 | 12 | 97 | 0.0 | 3.2 | 0.00 | 0.00 | 0.00 | 83 | 1018.9 |
| 20260906101945 | 12 | 344 | 4.8 | 4.8 | 0.00 | 0.00 | 0.00 | 83 | 1018.9 |
| 20260906101440 | 12 | 75 | 1.6 | 3.2 | 0.00 | 0.00 | 0.00 | 83 | 1019.2 |
| 20260906100935 | 12 | 111 | 1.6 | 3.2 | 0.00 | 0.00 | 0.00 | 82 | 1018.9 |
| 20260906100435 | 12 | 80 | 0.0 | 3.2 | 0.00 | 0.00 | 0.00 | 82 | 1018.9 |
| 20260906095930 | 12 | 100 | 1.6 | 1.6 | 0.00 | 0.00 | 0.00 | 82 | 1018.9 |
| 20260906095425 | 12 | 94 | 1.6 | 3.2 | 0.00 | 0.00 | 0.00 | 81 | 1018.9 |
| 20260906094920 | 12 | 66 | 1.6 | 3.2 | 0.00 | 0.00 | 0.00 | 81 | 1018.9 |
| 20260906094415 | 12 | 76 | 1.6 | 3.2 | 0.00 | 0.00 | 0.00 | 81 | 1018.9 |
| 20260906093911 | 12 | 32 | 1.6 | 3.2 | 0.00 | 0.00 | 0.00 | 81 | 1018.9 |
| 20260906093407 | 12 | 56 | 0.0 | 3.2 | 0.00 | 0.00 | 0.00 | 81 | 1018.9 |
| 20260906092906 | 13 | 355 | 4.8 | 11.3 | 0.00 | 0.00 | 0.00 | 81 | 1018.9 |
| 20260906092401 | 13 | 95 | 0.0 | 3.2 | 0.00 | 0.00 | 0.00 | 81 | 1018.9 |
| 20260906091856 | 13 | 57 | 1.6 | 4.8 | 0.00 | 0.00 | 0.00 | 81 | 1019.2 |
| 20260906091352 | 13 | 54 | 1.6 | 3.2 | 0.00 | 0.00 | 0.00 | 81 | 1018.9 |
| 20260906090849 | 13 | 54 | 3.2 | 9.7 | 0.00 | 0.00 | 0.00 | 82 | 1018.9 |
| 20260906090348 | 13 | 88 | 1.6 | 9.7 | 0.00 | 0.00 | 0.00 | 82 | 1018.9 |
| 20260906085842 | 12 | 105 | 1.6 | 3.2 | 0.00 | 0.00 | 0.00 | 83 | 1019.2 |
| 20260906085336 | 12 | 18 | 1.6 | 3.2 | 0.00 | 0.00 | 0.00 | 83 | 1019.2 |
| 20260906084831 | 13 | 86 | 1.6 | 3.2 | 0.00 | 0.00 | 0.00 | 82 | 1019.2 |
| 20260906084331 | 13 | 107 | 0.0 | 3.2 | 0.00 | 0.00 | 0.00 | 82 | 1019.2 |
| 20260906083825 | 13 | 334 | 3.2 | 4.8 | 0.00 | 0.00 | 0.00 | 82 | 1019.2 |
| 20260906083321 | 13 | 97 | 1.6 | 4.8 | 0.00 | 0.00 | 0.00 | 83 | 1019.2 |
| 20260906082815 | 13 | 148 | 1.6 | 3.2 | 0.00 | 0.00 | 0.00 | 83 | 1019.6 |
| 20260906082310 | 13 | 12 | 3.2 | 3.2 | 0.00 | 0.00 | 0.00 | 83 | 1019.6 |
| 20260906081806 | 13 | 92 | 1.6 | 4.8 | 0.00 | 0.00 | 0.00 | 83 | 1019.6 |
| 20260906081302 | 12 | 40 | 1.6 | 3.2 | 0.00 | 0.00 | 0.00 | 83 | 1019.6 |
| 20260906080758 | 12 | 76 | 1.6 | 3.2 | 0.00 | 0.00 | 0.00 | 84 | 1019.6 |
| 20260906080254 | 12 | 92 | 0.0 | 3.2 | 0.00 | 0.00 | 0.00 | 84 | 1019.6 |
| 20260906075753 | 12 | 102 | 0.0 | 1.6 | 0.00 | 0.00 | 0.00 | 83 | 1019.6 |
| 20260906075252 | 13 | 340 | 4.8 | 6.4 | 0.00 | 0.00 | 0.00 | 83 | 1019.6 |
| 20260906074748 | 13 | 98 | 1.6 | 3.2 | 0.00 | 0.00 | 0.00 | 83 | 1019.6 |
| 20260906074247 | 13 | 12 | 1.6 | 6.4 | 0.00 | 0.00 | 0.00 | 83 | 1019.2 |
| 20260906073748 | 12 | 12 | 4.8 | 9.7 | 0.00 | 0.00 | 0.00 | 83 | 1019.6 |
| 20260906073248 | 12 | 330 | 1.6 | 4.8 | 0.00 | 0.00 | 0.00 | 84 | 1019.6 |
| 20260906072743 | 12 | 75 | 0.0 | 1.6 | 0.00 | 0.00 | 0.00 | 84 | 1019.6 |
| 20260906072239 | 12 | 94 | 1.6 | 3.2 | 0.00 | 0.00 | 0.00 | 84 | 1019.6 |
| 20260906071735 | 12 | 70 | 0.0 | 3.2 | 0.00 | 0.00 | 0.00 | 83 | 1019.6 |
| 20260906071235 | 12 | 79 | 1.6 | 4.8 | 0.00 | 0.00 | 0.00 | 83 | 1019.6 |
| 20260906070731 | 12 | 54 | 1.6 | 4.8 | 0.00 | 0.00 | 0.00 | 83 | 1019.6 |
| 20260906070227 | 12 | 86 | 1.6 | 4.8 | 0.00 | 0.00 | 0.00 | 83 | 1019.6 |
| 20260906065726 | 12 | 87 | 1.6 | 3.2 | 0.00 | 0.00 | 0.00 | 83 | 1019.6 |
| 20260906065222 | 12 | 305 | 3.2 | 4.8 | 0.00 | 0.00 | 0.00 | 84 | 1019.6 |
| 20260906064717 | 12 | 100 | 0.0 | 1.6 | 0.00 | 0.00 | 0.00 | 83 | 1019.6 |
| 20260906064213 | 13 | 194 | 1.6 | 3.2 | 0.00 | 0.00 | 0.00 | 83 | 1019.6 |
| 20260906063708 | 13 | 86 | 0.0 | 9.7 | 0.00 | 0.00 | 0.00 | 83 | 1019.6 |
| 20260906063203 | 13 | 357 | 1.6 | 4.8 | 0.00 | 0.00 | 0.00 | 83 | 1019.6 |
| 20260906062659 | 13 | 82 | 3.2 | 3.2 | 0.00 | 0.00 | 0.00 | 83 | 1019.6 |
| 20260906062158 | 13 | 47 | 1.6 | 6.4 | 0.00 | 0.00 | 0.00 | 82 | 1019.6 |
| 20260906061654 | 13 | 331 | 3.2 | 6.4 | 0.00 | 0.00 | 0.00 | 82 | 1019.6 |
| 20260906061149 | 13 | 95 | 0.0 | 3.2 | 0.00 | 0.00 | 0.00 | 82 | 1019.9 |
| 20260906060645 | 13 | 90 | 1.6 | 3.2 | 0.00 | 0.00 | 0.00 | 81 | 1019.6 |
| 20260906060142 | 13 | 106 | 0.0 | 1.6 | 0.00 | 0.00 | 0.00 | 81 | 1019.6 |
| 20260906055638 | 13 | 34 | 3.2 | 3.2 | 0.00 | 0.00 | 0.00 | 80 | 1019.6 |
| 20260906055133 | 13 | 94 | 0.0 | 6.4 | 0.00 | 0.00 | 0.00 | 80 | 1019.6 |
| 20260906054628 | 14 | 85 | 1.6 | 4.8 | 0.00 | 0.00 | 0.00 | 79 | 1019.9 |
| 20260906054123 | 14 | 338 | 3.2 | 3.2 | 0.00 | 0.00 | 0.00 | 79 | 1019.9 |
| 20260906053620 | 14 | 86 | 1.6 | 1.6 | 0.00 | 0.00 | 0.00 | 77 | 1019.9 |
| 20260906053119 | 15 | 78 | 1.6 | 1.6 | 0.00 | 0.00 | 0.00 | 76 | 1019.9 |
| 20260906052615 | 15 | 87 | 0.0 | 1.6 | 0.00 | 0.00 | 0.00 | 75 | 1019.9 |
| 20260906052112 | 15 | 102 | 0.0 | 4.8 | 0.00 | 0.00 | 0.00 | 75 | 1019.9 |
| 20260906051608 | 14 | 79 | 1.6 | 6.4 | 0.00 | 0.00 | 0.00 | 76 | 1019.9 |
| 20260906051057 | 14 | 97 | 1.6 | 3.2 | 0.00 | 0.00 | 0.00 | 76 | 1019.9 |
| 20260906050552 | 14 | 101 | 1.6 | 3.2 | 0.00 | 0.00 | 0.00 | 77 | 1019.9 |
| 20260906050048 | 15 | 81 | 1.6 | 1.6 | 0.00 | 0.00 | 0.00 | 76 | 1019.9 |
| 20260906045546 | 15 | 102 | 0.0 | 0.0 | 0.00 | 0.00 | 0.00 | 76 | 1019.9 |
| 20260906045041 | 15 | 118 | 0.0 | 3.2 | 0.00 | 0.00 | 0.00 | 76 | 1019.9 |
| 20260906044531 | 15 | 102 | 0.0 | 1.6 | 0.00 | 0.00 | 0.00 | 76 | 1019.9 |
| 20260906044026 | 15 | 100 | 0.0 | 1.6 | 0.00 | 0.00 | 0.00 | 76 | 1019.9 |
| 20260906043522 | 14 | 99 | 0.0 | 1.6 | 0.00 | 0.00 | 0.00 | 77 | 1019.9 |
| 20260906043019 | 14 | 105 | 0.0 | 1.6 | 0.00 | 0.00 | 0.00 | 77 | 1019.9 |
| 20260906042516 | 14 | 104 | 0.0 | 0.0 | 0.00 | 0.00 | 0.00 | 77 | 1019.9 |
| 20260906042011 | 14 | 104 | 0.0 | 0.0 | 0.00 | 0.00 | 0.00 | 77 | 1020.2 |
| 20260906041508 | 14 | 112 | 0.0 | 3.2 | 0.00 | 0.00 | 0.00 | 77 | 1020.2 |
| 20260906041007 | 15 | 117 | 0.0 | 0.0 | 0.00 | 0.00 | 0.00 | 77 | 1020.2 |
| 20260906040502 | 15 | 120 | 0.0 | 0.0 | 0.00 | 0.00 | 0.00 | 76 | 1020.2 |
| 20260906035957 | 15 | 109 | 0.0 | 1.6 | 0.00 | 0.00 | 0.00 | 76 | 1020.2 |
| 20260906035452 | 15 | 105 | 0.0 | 0.0 | 0.00 | 0.00 | 0.00 | 77 | 1020.2 |
| 20260906034949 | 15 | 109 | 0.0 | 1.6 | 0.00 | 0.00 | 0.00 | 77 | 1020.2 |
| 20260906034448 | 15 | 101 | 0.0 | 1.6 | 0.00 | 0.00 | 0.00 | 77 | 1020.2 |
| 20260906033938 | 15 | 96 | 0.0 | 1.6 | 0.00 | 0.00 | 0.00 | 78 | 1020.2 |
| 20260906033432 | 15 | 109 | 0.0 | 1.6 | 0.00 | 0.00 | 0.00 | 78 | 1020.2 |
| 20260906032928 | 15 | 105 | 0.0 | 1.6 | 0.00 | 0.00 | 0.00 | 79 | 1020.2 |
| 20260906032425 | 14 | 145 | 0.0 | 4.8 | 0.00 | 0.00 | 0.00 | 79 | 1020.2 |
| 20260906031918 | 14 | 75 | 0.0 | 1.6 | 0.00 | 0.00 | 0.00 | 80 | 1020.2 |
| 20260906031414 | 14 | 95 | 0.0 | 4.8 | 0.00 | 0.00 | 0.00 | 80 | 1020.2 |
| 20260906030909 | 14 | 98 | 0.0 | 1.6 | 0.00 | 0.00 | 0.00 | 80 | 1020.2 |
| 20260906030404 | 14 | 48 | 1.6 | 1.6 | 0.00 | 0.00 | 0.00 | 80 | 1020.2 |
| 20260906025859 | 15 | 103 | 0.0 | 4.8 | 0.00 | 0.00 | 0.00 | 79 | 1020.6 |
| 20260906025358 | 15 | 85 | 0.0 | 1.6 | 0.00 | 0.00 | 0.00 | 79 | 1020.2 |
| 20260906024857 | 15 | 101 | 0.0 | 1.6 | 0.00 | 0.00 | 0.00 | 79 | 1020.2 |
| 20260906024357 | 15 | 295 | 1.6 | 3.2 | 0.00 | 0.00 | 0.00 | 78 | 1020.2 |
| 20260906023852 | 15 | 106 | 1.6 | 3.2 | 0.00 | 0.00 | 0.00 | 78 | 1020.2 |
| 20260906023349 | 15 | 352 | 1.6 | 4.8 | 0.00 | 0.00 | 0.00 | 77 | 1020.2 |
| 20260906022849 | 16 | 9 | 3.2 | 4.8 | 0.00 | 0.00 | 0.00 | 73 | 1020.6 |
| 20260906022344 | 17 | 44 | 4.8 | 11.3 | 0.00 | 0.00 | 0.00 | 71 | 1020.2 |
| 20260906021840 | 17 | 20 | 1.6 | 3.2 | 0.00 | 0.00 | 0.00 | 67 | 1020.2 |
| 20260906021339 | 17 | 276 | 6.4 | 9.7 | 0.00 | 0.00 | 0.00 | 66 | 1019.9 |
| 20260906020834 | 18 | 106 | 0.0 | 1.6 | 0.00 | 0.00 | 0.00 | 64 | 1020.2 |
| 20260906020333 | 18 | 107 | 1.6 | 4.8 | 0.00 | 0.00 | 0.00 | 63 | 1019.9 |
| 20260906015828 | 18 | 89 | 1.6 | 3.2 | 0.00 | 0.00 | 0.00 | 63 | 1019.9 |
| 20260906015326 | 18 | 104 | 3.2 | 4.8 | 0.00 | 0.00 | 0.00 | 62 | 1019.9 |
| 20260906014821 | 18 | 214 | 3.2 | 4.8 | 0.00 | 0.00 | 0.00 | 61 | 1019.9 |
| 20260906014316 | 19 | 95 | 0.0 | 1.6 | 0.00 | 0.00 | 0.00 | 60 | 1019.6 |
| 20260906013812 | 19 | 159 | 1.6 | 1.6 | 0.00 | 0.00 | 0.00 | 59 | 1019.9 |
| 20260906013307 | 19 | 90 | 1.6 | 1.6 | 0.00 | 0.00 | 0.00 | 58 | 1019.9 |
| 20260906012803 | 19 | 104 | 0.0 | 3.2 | 0.00 | 0.00 | 0.00 | 58 | 1019.9 |
| 20260906012258 | 20 | 68 | 1.6 | 4.8 | 0.00 | 0.00 | 0.00 | 58 | 1019.6 |
| 20260906011752 | 20 | 70 | 3.2 | 3.2 | 0.00 | 0.00 | 0.00 | 58 | 1019.6 |
| 20260906011251 | 20 | 67 | 1.6 | 6.4 | 0.00 | 0.00 | 0.00 | 57 | 1019.6 |
| 20260906010747 | 20 | 319 | 3.2 | 3.2 | 0.00 | 0.00 | 0.00 | 57 | 1019.6 |
| 20260906010244 | 21 | 98 | 1.6 | 3.2 | 0.00 | 0.00 | 0.00 | 56 | 1019.6 |
| 20260906005738 | 20 | 110 | 1.6 | 3.2 | 0.00 | 0.00 | 0.00 | 57 | 1019.6 |
| 20260906005237 | 20 | 109 | 1.6 | 3.2 | 0.00 | 0.00 | 0.00 | 57 | 1019.6 |
| 20260906004731 | 20 | 109 | 1.6 | 6.4 | 0.00 | 0.00 | 0.00 | 57 | 1019.6 |
| 20260906004226 | 20 | 345 | 1.6 | 3.2 | 0.00 | 0.00 | 0.00 | 57 | 1019.6 |
| 20260906003722 | 20 | 200 | 4.8 | 6.4 | 0.00 | 0.00 | 0.00 | 57 | 1019.6 |
| 20260906003217 | 21 | 145 | 0.0 | 3.2 | 0.00 | 0.00 | 0.00 | 54 | 1019.2 |
| 20260906002711 | 21 | 121 | 0.0 | 3.2 | 0.00 | 0.00 | 0.00 | 55 | 1019.2 |
| 20260906002201 | 22 | 38 | 3.2 | 4.8 | 0.00 | 0.00 | 0.00 | 53 | 1019.2 |
| 20260906001656 | 22 | 2 | 1.6 | 3.2 | 0.00 | 0.00 | 0.00 | 48 | 1019.2 |
| 20260906001156 | 22 | 105 | 1.6 | 3.2 | 0.00 | 0.00 | 0.00 | 49 | 1019.2 |
| 20260906000652 | 22 | 184 | 3.2 | 3.2 | 0.00 | 0.00 | 0.00 | 50 | 1019.2 |
| 20260906000147 | 22 | 112 | 4.8 | 9.7 | 0.00 | 0.00 | 0.00 | 51 | 1019.2 |
| 20260905235646 | 22 | 177 | 3.2 | 6.4 | 0.00 | 0.00 | 0.00 | 51 | 1019.2 |
| 20260905235141 | 22 | 167 | 4.8 | 4.8 | 0.00 | 0.00 | 0.00 | 51 | 1019.2 |
| 20260905234636 | 21 | 122 | 0.0 | 6.4 | 0.00 | 0.00 | 0.00 | 52 | 1019.2 |
| 20260905234131 | 21 | 100 | 4.8 | 9.7 | 0.00 | 0.00 | 0.00 | 53 | 1019.2 |
| 20260905233626 | 21 | 94 | 8.0 | 11.3 | 0.00 | 0.00 | 0.00 | 52 | 1019.2 |
| 20260905233120 | 22 | 82 | 3.2 | 12.9 | 0.00 | 0.00 | 0.00 | 52 | 1019.2 |
| 20260905232616 | 21 | 107 | 1.6 | 3.2 | 0.00 | 0.00 | 0.00 | 53 | 1019.2 |
| 20260905232111 | 21 | 103 | 1.6 | 3.2 | 0.00 | 0.00 | 0.00 | 54 | 1019.2 |
| 20260905231606 | 22 | 174 | 4.8 | 4.8 | 0.00 | 0.00 | 0.00 | 53 | 1019.2 |
| 20260905231102 | 22 | 154 | 3.2 | 4.8 | 0.00 | 0.00 | 0.00 | 53 | 1019.6 |
| 20260905230602 | 22 | 101 | 3.2 | 3.2 | 0.00 | 0.00 | 0.00 | 52 | 1019.6 |
| 20260905230100 | 22 | 110 | 0.0 | 3.2 | 0.00 | 0.00 | 0.00 | 54 | 1019.6 |
| 20260905225554 | 21 | 110 | 1.6 | 4.8 | 0.00 | 0.00 | 0.00 | 56 | 1019.6 |
| 20260905225049 | 21 | 115 | 1.6 | 3.2 | 0.00 | 0.00 | 0.00 | 55 | 1019.6 |
| 20260905224544 | 21 | 122 | 1.6 | 3.2 | 0.00 | 0.00 | 0.00 | 56 | 1019.6 |
| 20260905224043 | 22 | 95 | 3.2 | 6.4 | 0.00 | 0.00 | 0.00 | 55 | 1019.6 |
| 20260905223541 | 21 | 85 | 1.6 | 3.2 | 0.00 | 0.00 | 0.00 | 56 | 1019.6 |
| 20260905223037 | 21 | 98 | 1.6 | 3.2 | 0.00 | 0.00 | 0.00 | 57 | 1019.6 |
| 20260905222537 | 21 | 49 | 3.2 | 4.8 | 0.00 | 0.00 | 0.00 | 56 | 1019.6 |
| 20260905222032 | 22 | 51 | 3.2 | 4.8 | 0.00 | 0.00 | 0.00 | 54 | 1019.6 |
| 20260905221529 | 21 | 354 | 1.6 | 6.4 | 0.00 | 0.00 | 0.00 | 55 | 1019.6 |
| 20260905221024 | 21 | 27 | 1.6 | 3.2 | 0.00 | 0.00 | 0.00 | 56 | 1019.6 |
| 20260905220520 | 21 | 86 | 3.2 | 9.7 | 0.00 | 0.00 | 0.00 | 56 | 1019.6 |
| 20260905220016 | 21 | 77 | 1.6 | 4.8 | 0.00 | 0.00 | 0.00 | 57 | 1019.6 |
| 20260905215509 | 21 | 53 | 3.2 | 4.8 | 0.00 | 0.00 | 0.00 | 56 | 1019.6 |
| 20260905215000 | 21 | 71 | 3.2 | 6.4 | 0.00 | 0.00 | 0.00 | 57 | 1019.6 |
| 20260905214456 | 21 | 40 | 4.8 | 9.7 | 0.00 | 0.00 | 0.00 | 58 | 1019.6 |
| 20260905213956 | 21 | 0 | 4.8 | 6.4 | 0.00 | 0.00 | 0.00 | 56 | 1019.6 |
| 20260905213452 | 21 | 71 | 3.2 | 4.8 | 0.00 | 0.00 | 0.00 | 57 | 1019.9 |
| 20260905212946 | 21 | 83 | 3.2 | 3.2 | 0.00 | 0.00 | 0.00 | 58 | 1019.6 |
| 20260905212436 | 20 | 323 | 4.8 | 6.4 | 0.00 | 0.00 | 0.00 | 60 | 1019.6 |
| 20260905211935 | 21 | 180 | 1.6 | 3.2 | 0.00 | 0.00 | 0.00 | 57 | 1019.9 |
| 20260905211431 | 20 | 47 | 3.2 | 6.4 | 0.00 | 0.00 | 0.00 | 59 | 1019.9 |
| 20260905210926 | 21 | 88 | 0.0 | 3.2 | 0.00 | 0.00 | 0.00 | 58 | 1019.9 |
| 20260905210421 | 20 | 87 | 1.6 | 1.6 | 0.00 | 0.00 | 0.00 | 57 | 1019.9 |
| 20260905205920 | 21 | 103 | 1.6 | 4.8 | 0.00 | 0.00 | 0.00 | 59 | 1019.9 |
| 20260905205415 | 20 | 114 | 0.0 | 4.8 | 0.00 | 0.00 | 0.00 | 59 | 1019.9 |
| 20260905204914 | 20 | 62 | 1.6 | 3.2 | 0.00 | 0.00 | 0.00 | 59 | 1019.9 |
| 20260905204410 | 20 | 59 | 1.6 | 3.2 | 0.00 | 0.00 | 0.00 | 59 | 1019.9 |
| 20260905203909 | 20 | 91 | 0.0 | 4.8 | 0.00 | 0.00 | 0.00 | 60 | 1019.9 |
| 20260905203405 | 20 | 108 | 1.6 | 4.8 | 0.00 | 0.00 | 0.00 | 59 | 1019.9 |
| 20260905202900 | 20 | 112 | 3.2 | 3.2 | 0.00 | 0.00 | 0.00 | 58 | 1020.2 |
| 20260905202355 | 20 | 43 | 3.2 | 6.4 | 0.00 | 0.00 | 0.00 | 59 | 1019.9 |
| 20260905201850 | 20 | 77 | 1.6 | 3.2 | 0.00 | 0.00 | 0.00 | 60 | 1020.2 |
| 20260905201345 | 20 | 46 | 4.8 | 6.4 | 0.00 | 0.00 | 0.00 | 60 | 1019.9 |
| 20260905200840 | 20 | 39 | 4.8 | 9.7 | 0.00 | 0.00 | 0.00 | 61 | 1019.9 |
| 20260905200336 | 20 | 93 | 0.0 | 6.4 | 0.00 | 0.00 | 0.00 | 63 | 1019.9 |
| 20260905195833 | 20 | 117 | 1.6 | 3.2 | 0.00 | 0.00 | 0.00 | 61 | 1019.9 |
| 20260905195328 | 20 | 102 | 0.0 | 1.6 | 0.00 | 0.00 | 0.00 | 60 | 1019.9 |
| 20260905194825 | 19 | 66 | 0.0 | 6.4 | 0.00 | 0.00 | 0.00 | 64 | 1019.9 |
| 20260905194319 | 20 | 50 | 3.2 | 4.8 | 0.00 | 0.00 | 0.00 | 63 | 1019.9 |
| 20260905193818 | 18 | 103 | 0.0 | 6.4 | 0.00 | 0.00 | 0.00 | 66 | 1019.9 |
| 20260905193313 | 19 | 82 | 3.2 | 6.4 | 0.00 | 0.00 | 0.00 | 65 | 1019.9 |
| 20260905192809 | 20 | 42 | 3.2 | 4.8 | 0.00 | 0.00 | 0.00 | 63 | 1019.9 |
| 20260905192306 | 20 | 93 | 1.6 | 3.2 | 0.00 | 0.00 | 0.00 | 63 | 1020.2 |
| 20260905191804 | 19 | 116 | 0.0 | 3.2 | 0.00 | 0.00 | 0.00 | 65 | 1019.9 |